This is the latest recevied weather packets stored in our database for station/object DL7AND-1. If no packets are shown the sender has not sent any weather packets the latest 10 day(s).
| Time | Temp. | Humidity | Pressure | Rain* | Wind** | Luminosity | Snow |
|---|---|---|---|---|---|---|---|
| 1777954619 | 16.11° C | - | 1000.6 hPa | 0 mm | - | - | - |
| 1777953974 | 16.11° C | - | 1000.5 hPa | 0 mm | - | - | - |
| 1777949798 | 17.22° C | - | 1000.8 hPa | 0 mm | - | - | - |
| 1777948598 | 17.22° C | - | 1000.7 hPa | 0 mm | - | - | - |
| 1777946199 | 16.67° C | - | 1000.9 hPa | 0 mm | - | - | - |
| 1777945574 | 16.67° C | - | 1001.1 hPa | 0 mm | - | - | - |
| 1777944374 | 16.67° C | - | 1000.8 hPa | 0 mm | - | - | - |
| 1777943799 | 16.67° C | - | 1000.9 hPa | 0 mm | - | - | - |
| 1777938998 | 17.22° C | - | 1001.6 hPa | 0 mm | - | - | - |
| 1777937798 | 17.22° C | - | 1001.7 hPa | 0 mm | - | - | - |
| 1777936598 | 17.22° C | - | 1001.8 hPa | 0 mm | - | - | - |
| 1777935398 | 17.22° C | - | 1001.9 hPa | 0 mm | - | - | - |
| 1777929974 | 18.89° C | - | 1002.4 hPa | 0 mm | - | - | - |
| 1777924259 | 20.56° C | - | 1002.2 hPa | 0 mm | - | - | - |
| 1777917079 | 22.22° C | - | 1001.8 hPa | 0 mm | - | - | - |
| 1777915284 | 22.78° C | - | 1001.7 hPa | 0 mm | - | - | - |
| 1777914083 | 22.78° C | - | 1001.7 hPa | 0 mm | - | - | - |
| 1777910483 | 23.33° C | - | 1001.7 hPa | 0 mm | - | - | - |
| 1777909859 | 23.33° C | - | 1001.8 hPa | 0 mm | - | - | - |
| 1777908679 | 23.33° C | - | 1001.7 hPa | 0 mm | - | - | - |
| 1777908084 | 23.33° C | - | 1001.6 hPa | 0 mm | - | - | - |
| 1777905703 | 23.89° C | - | 1002 hPa | 0 mm | - | - | - |
| 1777898484 | 24.44° C | - | 1002.5 hPa | 0 mm | - | - | - |
| 1777897283 | 23.89° C | - | 1002.5 hPa | 0 mm | - | - | - |
| 1777890659 | 23.89° C | - | 1002.9 hPa | 0 mm | - | - | - |
* Rain latest hour (hover to see other rain measurements)
** Current wind speed in m/s (hover to see current wind gust speed)